GEFSNGP_con_probscp_114.txt.gz
Probability
0 0 0 0 0 0 0 0 0 0 0 0 0 0 0 0 0 0 0 0 0 0 0 0 0 0 0 0 0 0 0 0 0 0 0 0 0 0 0 0 0 0 0 0
0 0 0 0 0 0 0 0 0 0 0 0 0 0 0 0 0 0 0 0 0 0 0 0 0 0 0 0 0 0 0 0 0 0 0 0 0 0 0 0 0 0 0 0
0 0 0 0 0 0 0 0 0 0 0 0 0 0 0 0 0 0 0 0 0 0 0 0 0 0 0 0 0 0 0 0 0 0 0 0 1 0 0 0 0 0 0 0
0 0 0 0 0 0 0 0 0 0 0 0 0 0 0 0 0 0 0 0 0 0 0 0 0 0 0 0 0 0 0 0 0 0 0 1 1 0 0 0 0 0 0 0
0 0 0 0 0 0 0 0 0 0 0 0 0 0 0 0 0 0 0 0 0 0 0 0 0 0 0 0 0 0 0 0 0 0 0 1 0 0 0 0 0 0 0 0
0 0 0 0 1 0 0 0 0 0 0 0 0 0 0 0 0 0 0 0 0 0 0 0 0 0 0 0 0 0 0 0 0 0 0 0 0 0 0 0 0 0 0 0
0 0 0 0 0 0 0 0 0 0 0 0 0 0 0 0 0 0 0 0 0 0 0 0 0 0 0 0 0 0 0 0 0 0 0 0 0 0 0 0 0 0 0 0
0 0 0 0 0 0 0 0 0 0 0 0 0 0 0 0 0 0 0 0 0 0 0 0 0 0 0 0 0 0 0 0 0 0 0 0 0 0 0 0 0 0 0 0
0 0 0 0 0 0 0 0 0 0 0 0 0 0 0 0 0 0 0 0 0 0 0 0 0 0 0 0 0 0 0 0 0 0 0 0 0 0 0 0 0 0 0 0
0 0 0 0 0 0 0 0 0 0 0 0 0 0 0 0 0 0 0 0 0 0 0 0 0 0 0 0 0 0 0 0 0 0 0 0 0 0 0 0 0 0 0 0
0 0 0 0 0 0 0 0 0 0 0 0 0 0 0 0 0 0 0 0 0 0 0 0 0 0 0 0 0 0 0 0 0 0 0 0 0 0 0 0 0 0 0 0
0 0 0 0 0 0 0 0 0 0 0 0 0 0 0 0 0 0 0 0 0 0 0 0 0 0 0 0 0 0 0 0 0 0 0 0 0 0 0 0 0 0 0 0
0 0 0 0 0 0 0 0 0 0 0 0 0 0 0 0 0 0 0 0 0 0 0 0 0 0 0 0 0 0 0 0 0 0 0 0 0 0 0 0 0 0 0 0
0 0 0 0 0 0 0 0 0 0 0 0 0 0 0 0 0 0 0 0 0 0 0 0 0 0 0 0 0 0 0 0 0 0 0 0 0 0 0 0 0 0 0 0
0 0 0 0 0 0 0 0 0 0 0 0 0 0 0 0 0 0 0 0 0 0 0 0 0 0 0 0 0 0 0 0 0 0 0 0 0 0 0 0 0 0 0 0
0 0 0 0 0 0 0 0 0 0 0 0 0 0 0 0 0 0 0 0 0 0 0 0 0 0 0 0 0 0 0 0 0 0 0 0 0 0 0 0 0 0 0 0
0 0 0 0 0 0 0 0 0 0 0 0 0 0 0 0 0 0 0 0 0 0 0 0 0 0 0 0 0 0 0 0 0 0 0 0 0 0 0 0 0 0 0 0
0 0 0 0 0 0 0 0 0 0 0 0 0 0 0 0 0 0 0 0 0 0 0 0 0 0 0 0 0 0 0 0 0 0 0 0 0 0 0 0 0 0 0 0
0 0 0 0 0 0 0 0 0 0 0 0 0 0 0 0 0 0 0 0 0 0 0 0 0 0 0 0 0 0 0 0 0 0 0 0 0 0 0 0 0 0 0 0
0 0 0 0 0 0 0 0 0 0 0 0 0 0 0 0 0 0 0 0 0 0 0 0 0 0 0 0 0 0 0 0 0 0 0 0 0 0 0 0 0 0 0 0
0 0 0 0 0 0 0 0 0 0 0 0 0 0 0 0 0 0 0 0 0 0 0 0 0 0 0 0 0 0 0 0 0 0 0 0 0 0 0 0 0 0 0 0
0 0 0 0 0 0 0 0 0 0 0 0 0 0 0 0 0 0 0 0 0 0 0 0 0 0 0 0 0 0 0 0 0 0 0 0 0 0 0 0 0 0 0 0
0 0 0 0 0 0 0 0 0 0 0 0 0 0 0 0 0 0 0 0 0 0 0 0 0 0 0 0 0 0 0 0 0 0 0 0 0 0 0 0 0 0 0 0
0 0 0 0 0 0 0 0 0 0 0 0 0 0 0 0 0 0 0 0 0 0 0 0 0 0 0 0 0 0 0 0 0 0 0 0 0 0 0 0 0 0 0 0
0 0 0 0 0 0 0 0 0 0 0 0 0 0 0 0 0 0 0 0 0 0 0 0 0 0 0 0 0 0 0 0 0 0 0 0 0 0 0 0 0 0 0 0
0 0 0 0 0 0 0 0 0 0 0 0 0 0 0 0 0 0 0 0 0 0 0 0 0 0 0 0 0 0 0 0 0 0 0 0 0 0 0 0 0 0 0 0
0 0 0 0 0 0 0 0 0 0 0 0 0 0 0 0 0 0 0 0 0 0 0 0 0 0 0 0 0 0 0 0 0 0 0 0 0 0 0 0 0 0 0 0

GEFSNGP_con_probscp_120.txt.gz
Probability
1 0 0 0 0 0 0 0 0 0 0 0 0 0 0 0 0 2 5 7 6 3 1 2 3 4 3 3 4 7 10 10 10 10 9 9 8 5 2 1 2 3 3 2
1 0 0 0 0 0 0 0 0 0 0 1 0 0 0 0 1 3 5 7 6 6 6 7 9 10 7 5 6 9 13 15 15 14 12 10 9 6 4 3 3 4 4 4
1 0 0 0 0 0 0 0 0 1 1 2 1 0 0 0 1 3 4 5 6 9 12 15 16 16 14 11 11 13 17 19 21 20 16 12 10 8 6 4 4 5 6 6
0 0 0 0 0 0 0 0 0 1 2 1 0 0 0 0 1 2 2 3 5 9 15 18 20 22 23 23 21 20 21 22 23 22 19 14 11 9 7 6 6 6 6 6
1 1 0 0 0 0 0 0 0 1 1 0 0 1 1 1 1 2 3 6 8 10 15 22 26 29 33 34 30 26 24 24 24 22 18 15 12 10 8 8 7 7 6 6
2 1 1 0 0 0 0 1 1 0 0 0 1 3 3 3 4 6 10 13 15 17 22 30 35 38 40 37 32 27 24 24 24 20 15 14 14 12 11 10 9 7 7 6
1 1 1 2 2 2 4 5 4 2 2 3 4 6 6 6 9 12 15 17 20 26 34 40 43 46 45 38 30 25 23 23 22 16 11 10 14 15 14 12 10 8 7 6
0 1 2 3 3 4 7 7 5 3 4 6 8 7 6 7 11 15 15 15 20 30 39 42 43 46 45 38 28 23 21 21 19 14 8 7 12 16 14 11 8 7 6 6
1 2 3 2 3 4 5 5 3 2 4 7 8 6 5 7 12 16 16 16 21 28 35 37 38 40 39 34 27 22 20 18 17 14 9 7 10 10 8 6 4 3 3 3
1 2 2 2 3 3 3 2 1 1 3 5 5 4 5 10 16 17 18 19 21 26 30 31 32 32 32 30 26 21 18 16 14 12 8 8 7 4 3 2 2 2 2 2
1 1 1 2 2 2 2 1 1 2 3 4 5 5 7 12 16 15 14 16 18 22 25 26 27 26 24 23 22 19 14 11 9 7 6 6 3 1 0 1 2 2 2 2
1 0 0 1 1 1 1 1 1 2 3 4 6 7 9 12 14 12 11 13 16 19 21 21 21 19 16 16 17 15 11 7 5 3 4 4 1 0 0 1 1 1 1 1
1 0 0 0 0 0 0 0 0 1 1 3 5 6 8 10 11 11 10 10 12 14 16 17 16 14 10 10 12 12 8 4 2 2 3 2 1 0 1 1 1 1 0 0
0 0 0 0 0 0 0 0 0 0 0 1 1 2 4 5 7 7 7 6 5 7 9 11 11 10 7 7 8 8 5 2 1 1 1 1 1 1 2 3 3 3 2 0
0 0 0 0 0 0 0 0 0 0 0 0 0 0 1 1 1 2 3 2 1 2 4 5 6 6 5 5 6 5 3 1 0 1 1 1 1 2 3 4 5 4 2 1
0 0 0 0 1 1 0 0 0 0 0 0 0 0 1 1 0 0 1 1 1 1 2 3 3 3 3 3 4 5 4 2 1 2 2 2 2 3 3 3 3 3 1 0
0 0 0 0 1 1 0 0 0 0 0 0 0 0 0 1 1 0 0 0 1 1 1 2 2 2 2 1 2 4 4 2 1 2 2 2 2 2 2 2 2 1 1 0
0 0 0 0 1 1 0 0 0 0 0 0 0 0 0 0 0 0 0 0 0 0 0 1 1 2 2 1 1 2 3 3 2 3 3 1 1 1 2 2 2 2 1 1
0 0 0 0 0 0 0 0 0 0 0 0 0 0 0 0 0 0 0 0 0 0 0 0 0 1 1 1 1 1 2 3 3 2 2 1 0 0 1 2 1 1 1 0
0 0 0 0 0 0 0 0 0 0 0 0 0 0 0 0 0 0 0 0 0 0 0 0 0 0 0 0 0 0 1 2 2 1 1 0 0 0 1 1 0 0 0 0
0 0 0 0 0 0 0 0 0 0 0 0 0 0 0 0 0 0 0 0 0 0 0 0 0 0 0 0 0 0 0 1 1 0 0 0 0 0 0 0 0 0 0 0
0 0 0 0 0 0 0 0 0 0 0 0 0 0 0 0 0 0 0 0 0 0 0 0 0 0 0 0 0 0 0 0 0 0 0 0 0 0 0 0 0 0 0 0
0 0 0 0 0 0 0 0 0 0 0 0 0 0 0 0 0 0 0 0 0 0 0 0 0 0 0 0 0 0 0 0 0 0 0 0 0 0 0 0 0 0 0 0
0 0 0 0 0 0 0 0 0 0 0 0 0 0 0 0 0 0 0 0 0 0 0 0 0 0 0 0 0 0 0 0 0 0 0 0 0 0 0 0 0 0 0 0
0 0 0 0 0 0 0 0 0 0 0 0 0 0 0 0 0 0 0 0 0 0 0 0 0 0 0 0 0 0 0 0 0 0 0 0 0 0 0 0 0 0 0 0
0 0 0 0 0 0 0 0 0 0 0 0 0 0 0 0 0 0 0 0 0 0 0 0 0 0 0 0 0 0 0 0 0 0 0 0 0 0 0 0 0 0 0 0
0 0 0 0 0 0 0 0 0 0 0 0 0 0 0 0 0 0 0 0 0 0 0 0 0 0 0 0 0 0 0 0 0 0 0 0 0 0 0 0 0 0 0 0

GEFSNGP_con_probscp_126.txt.gz
Probability
1 1 0 0 0 0 0 0 0 1 2 3 5 6 4 3 6 13 22 30 40 45 42 36 32 27 25 26 27 27 26 28 33 34 30 26 23 19 15 10 5 1 0 1
3 2 1 0 0 0 0 0 0 1 2 3 4 4 5 6 10 16 23 31 41 48 49 44 38 33 31 32 34 35 34 32 34 36 33 29 26 22 17 14 10 6 4 3
5 3 1 0 0 0 0 0 0 2 5 6 6 6 10 16 19 23 29 37 45 52 55 54 49 44 42 41 43 44 41 38 37 38 37 32 28 26 24 22 20 17 14 12
7 4 1 0 1 1 1 3 4 7 12 13 11 14 20 27 30 33 40 48 54 57 59 61 60 56 53 50 50 49 47 46 44 42 41 39 34 33 34 33 30 28 25 23
6 3 0 1 3 4 5 10 14 17 20 19 18 22 30 36 39 44 52 61 64 62 63 67 68 67 64 60 57 56 56 57 54 50 50 49 45 44 45 44 39 35 31 30
4 2 1 2 4 7 13 23 30 31 29 28 30 34 37 39 44 50 58 68 70 68 71 76 77 76 73 67 65 65 67 67 63 59 57 56 54 54 54 52 46 40 36 36
2 1 2 4 6 11 22 33 38 37 36 37 42 43 40 40 45 52 60 68 72 74 78 83 85 82 77 71 69 70 70 70 67 62 57 56 59 61 58 53 48 44 40 40
3 3 5 7 9 16 26 31 31 32 34 35 36 38 40 43 48 53 60 64 68 73 79 83 84 81 76 72 69 69 67 66 65 60 54 54 60 62 57 50 45 42 39 37
5 5 6 9 11 15 20 20 20 23 26 27 26 29 36 44 48 51 57 61 63 68 73 75 75 73 70 68 67 64 63 62 62 56 52 53 56 53 48 44 38 33 30 29
4 4 5 7 8 9 10 12 15 19 23 25 25 26 32 38 42 45 51 56 59 63 66 65 64 64 63 63 63 62 61 59 57 51 48 48 46 40 34 30 25 21 19 19
1 2 2 3 3 3 4 8 14 19 24 26 26 27 29 34 37 39 43 48 50 55 58 57 56 56 56 57 58 59 58 56 50 43 38 36 32 26 21 15 11 9 8 9
0 1 1 0 1 1 2 5 12 18 21 23 24 26 29 33 35 36 39 41 43 47 51 50 48 47 48 50 52 53 53 50 42 33 27 22 17 14 9 4 2 1 2 2
0 0 0 0 0 1 2 4 8 14 17 17 19 22 27 31 33 32 33 34 37 41 44 43 40 38 38 40 42 44 43 39 32 23 17 12 10 7 5 2 1 0 0 0
1 1 1 1 1 2 3 4 6 9 12 13 14 16 21 25 25 24 24 25 29 33 36 35 32 30 29 29 31 33 31 25 20 16 11 8 7 7 6 5 3 1 0 0
4 3 2 1 2 3 3 2 4 6 8 9 10 11 14 16 17 16 16 18 21 24 26 26 24 23 22 21 22 22 19 14 11 9 8 6 5 5 5 4 4 2 1 1
4 4 3 2 3 3 2 1 2 3 5 6 7 8 9 9 10 10 11 13 14 15 16 15 14 13 13 12 12 11 8 6 4 4 4 3 3 2 3 3 3 3 3 2
4 4 4 5 5 3 2 1 1 2 3 4 4 5 5 5 5 5 5 6 8 8 8 6 6 5 5 4 4 4 2 1 1 2 2 2 2 2 2 2 3 3 3 3
5 5 6 7 6 4 3 2 2 3 3 3 3 3 3 3 3 2 1 2 2 3 2 2 1 2 2 2 1 1 1 0 1 1 1 1 1 1 1 1 2 2 2 2
5 6 6 6 5 4 3 3 3 3 3 3 3 3 3 2 1 1 0 0 0 0 0 0 0 1 1 1 1 0 0 0 1 2 2 1 1 1 1 1 1 1 1 1
5 5 6 5 4 3 3 3 3 3 3 3 3 2 1 1 0 0 0 0 0 0 0 0 0 0 0 0 0 0 0 0 1 1 2 2 2 2 2 1 0 0 0 0
3 4 4 3 3 2 2 2 2 2 2 2 1 1 0 0 0 0 0 0 0 0 0 0 0 0 0 0 0 0 0 0 0 0 1 1 1 1 1 1 0 0 0 0
1 1 1 1 1 1 1 1 1 1 1 1 0 0 0 0 0 0 0 0 0 0 0 0 0 0 0 0 0 0 0 0 0 0 0 0 0 0 0 0 0 0 0 0
0 0 0 0 0 0 0 0 0 0 0 0 0 0 0 0 0 0 0 0 0 0 0 0 0 0 0 0 0 0 0 0 0 0 0 0 0 0 0 0 0 0 0 0
0 0 0 0 0 0 0 0 0 0 0 0 0 0 0 0 0 0 0 0 0 0 0 0 0 0 0 0 0 0 0 0 0 0 0 0 0 0 0 0 0 0 0 0
0 0 0 0 0 0 0 0 0 0 0 0 0 0 0 0 0 0 0 0 0 0 0 0 0 0 0 0 0 0 0 0 0 0 0 0 0 0 0 0 0 0 0 0
0 0 0 0 0 0 0 0 0 0 0 0 0 0 0 0 0 0 0 0 0 0 0 0 0 0 0 0 0 0 0 0 0 0 0 0 0 0 0 0 0 0 0 0
0 0 0 0 0 0 0 0 0 0 0 0 0 0 0 0 0 0 0 0 0 0 0 0 0 0 0 0 0 0 0 0 0 0 0 0 0 0 0 0 0 0 0 0

GEFSNGP_con_probscp_132.txt.gz
Probability
0 0 0 0 1 0 0 0 0 0 0 0 1 1 1 3 5 8 9 11 14 12 9 8 9 8 7 6 5 4 4 3 3 1 0 0 0 0 0 1 0 0 0 0
0 0 0 0 1 0 0 0 0 0 0 0 1 1 2 3 6 8 8 10 13 12 9 9 9 9 9 8 7 6 5 4 3 3 2 1 1 1 1 1 1 0 0 0
0 0 0 0 1 1 1 1 1 0 0 1 2 3 4 4 5 6 6 8 11 11 9 8 10 10 11 12 12 11 9 7 6 5 5 4 3 2 2 2 2 1 0 0
0 0 0 0 1 2 2 2 2 1 1 3 5 8 9 8 5 5 6 9 11 11 8 7 8 10 13 16 17 15 13 11 9 9 8 6 5 4 4 4 3 1 0 0
0 0 0 0 1 2 2 2 1 1 2 6 9 12 14 12 8 6 7 10 13 12 8 6 7 10 15 19 19 17 16 15 14 14 13 10 8 8 7 7 6 3 1 0
0 0 0 0 1 2 2 2 1 1 2 6 9 12 15 17 14 11 11 13 14 14 12 9 9 13 17 19 18 18 18 18 17 17 15 12 13 12 11 11 8 5 3 1
0 0 0 0 1 1 2 1 1 1 2 4 6 9 13 18 18 16 15 16 17 17 15 12 12 15 17 17 16 17 19 19 16 15 13 11 12 13 13 11 8 5 3 2
0 0 0 0 0 0 0 0 0 1 2 2 4 8 12 16 18 17 16 17 17 16 14 14 15 16 15 14 14 16 18 16 13 11 10 9 9 10 11 10 8 7 4 2
0 0 0 0 0 0 0 0 1 2 3 4 6 10 13 15 16 15 15 15 15 14 13 14 15 13 11 11 12 13 13 12 12 12 11 9 8 7 8 8 8 6 4 2
0 0 0 0 0 0 0 1 3 5 6 6 8 11 13 14 14 13 13 13 13 12 12 13 12 10 7 7 8 10 11 10 11 11 10 8 6 5 6 7 6 4 3 2
0 0 0 0 0 0 0 2 4 5 6 6 8 9 11 11 10 10 10 11 12 12 13 13 10 7 6 6 7 10 12 12 11 9 7 4 3 2 3 4 3 1 1 1
0 0 0 0 0 0 0 1 2 3 3 3 5 6 6 6 6 7 8 10 12 13 13 11 8 6 5 6 7 9 11 12 9 6 3 1 1 0 1 1 1 0 0 0
1 0 0 0 0 0 0 0 1 2 1 1 2 2 2 2 3 4 6 8 11 13 11 7 5 4 5 5 6 6 7 7 6 4 2 1 0 0 0 0 0 0 0 0
1 0 0 0 0 0 0 0 1 1 0 0 0 0 0 2 3 3 4 6 8 9 8 5 4 3 4 4 4 4 3 2 2 2 2 1 0 0 0 0 0 0 0 0
1 0 0 0 0 0 0 0 0 0 0 0 0 0 0 1 2 2 2 3 3 3 3 4 3 2 2 2 2 1 0 0 1 1 1 0 0 0 0 0 0 0 0 0
0 0 0 0 0 0 0 0 0 0 0 0 0 0 0 1 1 1 1 0 0 0 1 2 2 1 0 1 0 0 0 0 0 0 0 0 0 0 0 0 0 0 0 0
0 0 0 0 0 0 0 0 0 1 1 1 1 0 0 0 0 0 0 0 0 0 0 1 1 1 0 0 0 0 0 0 0 0 0 0 0 0 0 0 0 0 0 0
0 0 0 0 0 0 0 0 0 1 2 2 1 0 0 0 0 0 0 0 0 0 0 0 0 0 0 0 0 0 0 0 0 0 0 0 0 0 0 0 0 0 0 0
0 0 0 0 0 0 0 0 0 1 1 1 0 0 0 0 0 0 0 0 0 0 0 0 0 0 0 0 0 0 0 0 0 0 0 0 0 0 0 0 0 0 0 0
0 0 0 0 0 0 0 0 0 0 0 0 0 0 0 0 0 0 0 0 0 0 0 0 0 0 0 0 0 0 0 0 0 0 0 0 0 0 0 0 0 0 0 0
0 0 0 0 0 0 0 0 0 0 0 0 0 0 0 0 0 0 0 0 0 0 0 0 0 0 0 0 0 0 0 0 0 0 0 0 0 0 0 0 0 0 0 0
0 0 0 0 0 0 0 0 0 0 0 0 0 0 0 0 0 0 0 0 0 0 0 0 0 0 0 0 0 0 0 0 0 0 0 0 0 0 0 0 0 0 0 0
0 0 0 0 0 0 0 0 0 0 0 0 0 0 0 0 0 0 0 0 0 0 0 0 0 0 0 0 0 0 0 0 0 0 0 0 0 0 0 0 0 0 0 0
0 0 0 0 0 0 0 0 0 0 0 0 0 0 0 0 0 0 0 0 0 0 0 0 0 0 0 0 0 0 0 0 0 0 0 0 0 0 0 0 0 0 0 0
0 0 0 0 0 0 0 0 0 0 0 0 0 0 0 0 0 0 0 0 0 0 0 0 0 0 0 0 0 0 0 0 0 0 0 0 0 0 0 0 0 0 0 0
0 0 0 0 0 0 0 0 0 0 0 0 0 0 0 0 0 0 0 0 0 0 0 0 0 0 0 0 0 0 0 0 0 0 0 0 0 0 0 0 0 0 0 0
0 0 0 0 0 0 0 0 0 0 0 0 0 0 0 0 0 0 0 0 0 0 0 0 0 0 0 0 0 0 0 0 0 0 0 0 0 0 0 0 0 0 0 0